Weather History for Shelbyville, IN

Change the Weather History Date:

Tuesday, August 14, 2012

  Actual Average Record
Temperature  
Mean Temperature 70 °F 73 °F  
Max Temperature 77 °F 83 °F 90 °F (2010)
Min Temperature 63 °F 62 °F 50 °F (2013)
Degree Days  
Heating Degree Days 0 0  
Month to date heating degree days 0 0  
Since 1 June heating degree days 15 16  
Since 1 July heating degree days 0 1  
Cooling Degree Days 5 8  
Month to date cooling degree days 151 112  
Year to date cooling degree days 1179 685  
Since 1 June cooling degree days 939 604  
Growing Degree Days 20 (Base 50)    
Moisture  
Dew Point 63 °F    
Average Humidity 75    
Maximum Humidity 93    
Minimum Humidity 56    
Precipitation  
Precipitation 0.00 in 0.08 in 0.21 in (2006)
Month to date precipitation 2.06 1.27  
Year to date precipitation 15.82 28.16  
Sea Level Pressure  
Sea Level Pressure 29.90 in    
Wind  
Wind Speed 5 mph (NW)    
Max Wind Speed 13 mph    
Max Gust Speed 22 mph    
Visibility 10 miles    
Events      
T = Trace of Precipitation, MM = Missing Value Source: NWS Daily Summary

Daily Weather History Graph

Daily Weather History Graph

Search for Another Location

Airport:

Trip Planner

Search our weather history database for the weather conditions in past years. The results will help you decide how hot, cold, wet, or windy it might be!

Date:

Astronomy

Aug. 14, 2012 Rise Set
Actual Time 6:55 AM EDT 8:39 PM EDT
Civil Twilight 6:26 AM EDT 9:08 PM EDT
Nautical Twilight 5:51 AM EDT 9:43 PM EDT
Astronomical Twilight 5:13 AM EDT 10:20 PM EDT
Moon 3:52 AM EDT (8/14) 6:33 PM EDT (8/14)
Length of Visible Light 14h 42m
Length of Day
13h 44m
Waning Crescent, 10% of the Moon is Illuminated
Aug 14
Waning Crescent
Aug 17
New
Aug 24
First Quarter
Aug 31
Full
Sep 8
Last Quarter

Hourly Weather History & Observations

Time (EDT) Temp. Dew Point Humidity Pressure Visibility Wind Dir Wind Speed Gust Speed Precip Events Conditions
12:46 AM 69.8 °F 64.4 °F 83% 29.89 in 10.0 mi WSW 3.5 mph - N/A   Overcast
12:53 AM 70.0 °F 64.0 °F 81% 29.87 in 10.0 mi Calm Calm - N/A   Overcast
1:03 AM 69.8 °F 64.4 °F 83% 29.89 in 10.0 mi WSW 3.5 mph - N/A   Overcast
1:53 AM 70.0 °F 64.9 °F 84% 29.87 in 10.0 mi Calm Calm - 0.00 in   Overcast
2:53 AM 69.1 °F 64.0 °F 84% 29.86 in 10.0 mi West 4.6 mph - 0.01 in   Overcast
3:53 AM 68.0 °F 64.9 °F 90% 29.85 in 10.0 mi West 4.6 mph - N/A   Overcast
4:32 AM 68.0 °F 64.4 °F 88% 29.87 in 8.0 mi WSW 4.6 mph - N/A   Overcast
4:53 AM 68.0 °F 64.9 °F 90% 29.85 in 7.0 mi WSW 4.6 mph - N/A   Overcast
5:10 AM 68.0 °F 64.4 °F 88% 29.87 in 7.0 mi Calm Calm - N/A   Overcast
5:19 AM 68.0 °F 64.4 °F 88% 29.87 in 7.0 mi Calm Calm - N/A   Overcast
5:53 AM 68.0 °F 64.9 °F 90% 29.86 in 6.0 mi WNW 5.8 mph - N/A   Overcast
6:21 AM 68.0 °F 64.4 °F 88% 29.88 in 6.0 mi NW 8.1 mph - N/A   Overcast
6:53 AM 68.0 °F 64.0 °F 87% 29.88 in 10.0 mi NW 6.9 mph - N/A   Overcast
7:53 AM 66.9 °F 64.0 °F 90% 29.89 in 10.0 mi NNW 5.8 mph - N/A   Overcast
8:43 AM 68.0 °F 64.4 °F 88% 29.92 in 10.0 mi NW 10.4 mph - N/A   Overcast
8:53 AM 66.9 °F 63.0 °F 87% 29.90 in 10.0 mi NW 12.7 mph - N/A   Overcast
9:53 AM 68.0 °F 61.0 °F 78% 29.92 in 10.0 mi NNW 10.4 mph - N/A   Overcast
10:53 AM 69.1 °F 62.1 °F 78% 29.93 in 10.0 mi NNW 5.8 mph - N/A   Overcast
11:53 AM 70.0 °F 62.1 °F 76% 29.92 in 10.0 mi NW 9.2 mph - N/A   Overcast
12:03 PM 69.8 °F 62.6 °F 78% 29.94 in 10.0 mi NW 10.4 mph - N/A   Overcast
12:53 PM 72.0 °F 63.0 °F 73% 29.93 in 10.0 mi NW 11.5 mph - N/A   Overcast
1:36 PM 75.2 °F 62.6 °F 65% 29.94 in 10.0 mi NW 6.9 mph - N/A   Overcast
1:45 PM 75.2 °F 62.6 °F 65% 29.93 in 10.0 mi NNW 6.9 mph - N/A   Overcast
1:53 PM 75.9 °F 62.1 °F 62% 29.92 in 10.0 mi NW 9.2 mph 16.1 mph N/A   Overcast
2:01 PM 75.2 °F 60.8 °F 61% 29.93 in 10.0 mi NNW 6.9 mph - N/A   Overcast
2:53 PM 73.9 °F 61.0 °F 64% 29.92 in 10.0 mi North 6.9 mph - N/A   Overcast
3:53 PM 73.9 °F 62.1 °F 66% 29.92 in 10.0 mi NW 8.1 mph - N/A   Overcast
4:53 PM 75.0 °F 60.1 °F 60% 29.91 in 10.0 mi WNW 4.6 mph - N/A   Mostly Cloudy
5:53 PM 75.0 °F 61.0 °F 62% 29.90 in 10.0 mi NNW 4.6 mph - N/A   Scattered Clouds
6:53 PM 77.0 °F 61.0 °F 58% 29.90 in 10.0 mi NNW 5.8 mph - N/A   Partly Cloudy
7:53 PM 73.9 °F 62.1 °F 66% 29.90 in 10.0 mi North 3.5 mph - N/A   Clear
8:53 PM 68.0 °F 62.1 °F 81% 29.91 in 10.0 mi Calm Calm - N/A   Clear
9:53 PM 64.9 °F 61.0 °F 87% 29.92 in 10.0 mi Calm Calm - N/A   Clear
10:53 PM 64.0 °F 61.0 °F 90% 29.93 in 10.0 mi Calm Calm - N/A   Clear
11:53 PM 64.0 °F 61.0 °F 90% 29.92 in 10.0 mi ENE 3.5 mph - N/A   Clear